Theta_e
327 329 331 336 338 340 343 344 344 344 345 345 346 346 347 346 346 347 347 347 347 348 348 347 347 347 346 345 346 346 347 346 346 346 346 347 348 348 348 348 348 348 348 348 347 348 348 348 349 349 350 350 350 350 350 349 350 347 347 347 348 348 348 348 347 347 347 348 349 349 349 349 349 351 353 354 354 353 355 355 354 351 350 351 353
326 329 330 332 336 337 340 341 343 343 344 344 345 345 345 345 345 345 346 346 346 347 346 347 346 346 347 346 346 346 346 347 347 346 346 346 347 347 346 346 347 347 348 348 348 348 348 348 348 349 350 350 349 349 349 349 349 348 347 348 348 347 348 347 347 347 347 347 347 347 347 347 348 351 353 354 354 354 354 354 354 350 348 353 353
326 329 330 331 334 335 337 338 340 341 342 342 342 343 343 343 343 343 344 344 344 345 345 345 346 346 347 347 346 346 346 346 346 346 346 346 345 344 346 347 346 345 347 346 347 347 347 347 349 349 349 349 349 349 349 348 348 348 348 348 347 348 347 347 347 347 347 347 347 347 345 345 346 350 352 353 354 353 354 353 353 352 348 354 353
324 325 329 331 333 334 335 337 337 337 339 340 341 340 340 341 341 341 342 343 343 344 344 344 344 345 345 345 345 345 345 345 345 345 344 343 342 341 341 342 344 345 346 347 346 347 347 347 348 348 347 347 347 348 348 348 348 348 349 349 349 349 348 347 348 347 347 347 346 344 343 340 339 346 353 353 354 354 354 353 352 353 354 354 354
323 324 329 328 327 332 333 334 335 336 337 338 338 338 338 339 339 340 340 341 341 341 341 342 342 342 342 342 343 343 342 341 341 341 341 340 339 339 339 339 340 342 343 345 346 347 347 348 344 347 346 345 345 345 345 346 347 347 348 348 348 348 348 348 348 348 347 346 345 344 342 341 338 350 353 354 354 354 353 353 353 353 353 353 354
322 324 326 326 326 328 332 332 333 334 335 336 336 336 337 337 338 338 338 339 338 338 339 339 339 339 339 340 340 339 339 338 338 338 338 338 337 336 336 337 338 339 341 342 343 343 344 346 346 346 344 342 342 344 344 345 345 346 347 347 347 348 347 347 345 343 343 344 343 341 342 340 340 350 347 348 352 354 353 354 354 353 352 353 353
323 323 326 325 325 328 332 331 332 333 334 334 334 335 335 335 336 336 336 336 336 336 336 336 337 337 337 337 337 336 336 335 335 336 336 336 335 334 334 334 335 336 337 338 339 340 341 341 341 342 341 338 340 340 339 340 340 341 342 344 345 345 344 343 340 339 340 341 340 341 339 339 340 342 347 347 349 352 352 353 353 353 353 353 352
319 323 324 324 324 328 330 331 331 332 333 332 333 333 333 333 333 333 334 334 334 334 334 334 334 334 334 334 333 333 333 332 332 332 333 333 332 332 331 331 332 333 334 335 336 336 337 337 337 337 337 335 335 336 336 336 336 337 338 339 342 342 341 339 337 337 340 340 340 338 338 340 341 342 345 345 346 346 348 351 350 351 351 352 350
317 321 323 322 322 329 329 330 330 331 331 331 331 330 331 331 331 331 331 331 331 332 332 332 332 331 331 330 330 330 329 329 329 329 330 330 330 329 329 329 329 330 331 331 333 333 334 334 334 334 334 333 332 332 332 332 332 334 335 336 337 337 337 336 334 335 336 339 339 337 339 340 340 341 345 349 347 345 348 350 349 349 350 350 349
315 320 321 320 321 326 327 329 329 330 329 329 329 329 329 329 329 329 329 329 329 329 329 329 328 328 328 327 327 326 326 326 325 326 327 327 327 327 327 326 326 327 328 329 330 330 331 331 331 330 331 330 330 329 329 329 329 330 331 333 334 335 335 333 332 332 334 337 338 338 339 345 340 341 344 349 348 348 349 348 347 345 347 349 348
315 318 318 318 320 325 326 327 327 327 327 327 327 327 327 327 326 326 326 326 326 326 326 326 326 325 325 325 325 324 324 324 325 324 325 326 326 325 325 325 325 325 325 326 327 328 328 329 328 327 327 327 326 326 325 325 325 326 326 327 329 330 331 328 330 329 333 335 337 338 341 344 338 338 349 348 348 347 349 347 346 346 349 350 351
313 315 316 316 321 324 325 325 325 325 325 325 326 325 325 325 325 325 325 325 324 324 323 323 323 323 324 325 324 323 323 323 323 323 323 324 324 323 323 323 323 323 324 324 324 325 325 326 325 325 324 323 323 323 323 323 322 323 323 323 323 324 325 324 325 326 328 332 335 338 338 339 340 342 347 347 348 348 349 349 348 349 349 350 350
311 313 314 314 315 321 323 324 324 324 325 325 324 324 324 323 324 324 324 323 323 323 323 323 323 323 323 323 323 322 321 321 321 321 322 322 323 323 322 322 322 323 323 322 323 323 324 324 324 324 323 322 322 322 322 322 322 322 321 321 321 321 321 319 315 317 323 328 332 336 338 338 338 345 346 346 346 347 347 347 347 348 349 349 349
308 310 311 311 312 317 320 321 322 323 323 323 323 323 323 322 323 323 322 322 322 321 321 321 321 321 321 321 321 320 320 320 321 320 321 321 322 322 322 321 321 322 322 322 322 322 323 323 323 322 322 322 322 322 321 320 320 321 321 321 321 321 319 316 314 313 317 320 326 332 334 337 338 345 346 345 346 347 347 347 347 347 348 348 348
306 308 309 310 309 310 316 318 319 320 321 321 321 321 321 321 321 321 321 320 320 320 319 319 319 319 319 319 319 319 318 318 318 318 318 319 320 320 320 320 320 320 320 320 320 320 320 321 320 320 319 319 320 320 319 319 320 320 319 320 319 319 319 314 312 309 311 316 320 325 331 335 341 344 345 345 345 346 346 346 346 346 347 347 348
307 306 307 307 307 308 308 314 316 317 317 317 318 318 319 318 318 318 318 318 318 318 317 317 316 316 316 316 316 316 316 316 315 315 315 315 317 317 318 318 317 318 318 317 318 318 319 319 319 318 318 318 319 318 318 318 319 318 318 317 317 317 316 316 311 307 306 309 315 322 324 329 339 339 340 343 345 346 346 345 345 345 345 347 347
306 305 304 304 306 305 307 308 311 313 313 314 314 315 315 316 316 316 316 316 316 316 315 314 314 313 313 312 312 312 312 313 313 312 312 312 313 315 315 315 315 316 316 316 316 316 316 317 317 317 317 318 318 318 318 317 317 316 315 316 315 315 315 316 310 308 307 312 317 320 323 329 336 342 341 343 345 345 345 345 345 345 345 345 346
305 304 302 303 302 303 304 305 306 305 306 308 311 312 312 313 313 313 313 312 312 312 312 311 311 310 309 309 308 308 309 309 310 310 308 308 309 310 312 313 313 314 314 314 314 314 314 315 315 315 315 315 315 315 316 316 316 314 315 314 314 314 315 315 309 310 311 319 321 325 327 329 332 338 340 342 344 345 345 345 345 345 345 345 345
302 301 301 300 300 301 302 304 305 304 305 303 302 307 310 310 311 311 311 310 309 308 308 308 307 306 306 306 307 307 306 306 306 306 307 305 305 305 309 311 311 311 312 312 312 312 313 313 313 313 313 313 313 313 313 314 313 312 313 312 313 314 313 313 310 308 308 307 308 310 319 326 325 332 336 341 342 343 343 344 344 344 344 345 344
300 300 300 300 300 301 301 301 302 303 303 302 302 301 306 308 308 308 308 307 307 306 306 305 304 304 303 304 306 307 307 304 305 304 304 304 303 303 306 309 309 309 310 311 310 310 311 311 311 311 311 312 310 311 312 311 310 311 310 310 312 311 307 304 304 305 305 305 310 306 317 321 322 326 328 330 334 337 338 338 338 340 342 342 343
301 299 299 299 300 300 300 300 301 302 302 301 300 300 303 304 304 304 305 305 305 305 304 305 306 305 305 307 306 302 300 299 298 300 306 303 304 303 304 306 307 307 308 309 308 308 310 310 310 310 310 309 307 307 310 307 308 309 309 311 311 306 305 304 304 305 306 306 309 308 317 317 320 322 324 324 325 327 330 333 336 338 339 340 340
297 297 299 299 299 300 300 300 300 301 302 303 303 303 303 304 300 301 301 302 303 305 302 301 306 301 305 301 299 299 298 296 298 302 300 302 302 304 304 304 305 305 305 307 306 307 308 308 308 308 307 306 305 301 302 306 310 309 311 310 304 302 303 303 303 303 304 304 308 310 314 316 318 320 322 322 323 322 323 324 326 329 332 335 339
296 297 297 299 298 299 299 300 300 300 301 301 303 302 300 300 301 299 301 303 302 301 301 301 300 300 300 297 299 298 299 298 297 301 301 304 302 302 304 303 303 304 303 304 304 305 305 305 306 305 304 304 299 298 298 298 299 305 305 302 300 301 302 302 302 302 303 304 304 312 312 314 316 317 319 320 321 322 322 323 323 324 325 327 331
297 297 296 299 298 298 299 299 299 300 300 300 302 300 299 299 299 300 300 300 300 300 300 300 299 299 300 297 297 299 298 297 306 305 304 298 299 303 304 304 302 304 301 302 303 303 303 303 303 303 303 299 296 297 297 297 297 299 299 298 299 300 301 301 301 302 302 304 305 313 311 313 315 316 318 320 321 321 323 324 325 325 325 326 327
297 297 298 298 297 299 298 299 299 299 299 299 300 298 299 298 299 298 299 298 299 299 298 298 299 299 298 297 298 299 298 297 297 296 296 297 295 295 295 295 296 295 302 294 295 296 296 295 295 297 295 295 295 295 296 296 297 298 297 297 298 299 300 300 299 300 301 302 303 312 310 311 313 316 318 319 320 320 320 321 322 324 324 325 325
298 297 297 297 297 298 298 298 299 299 299 298 299 299 300 297 297 297 297 298 300 297 298 298 297 297 297 297 297 297 296 296 296 295 295 295 294 294 294 294 293 294 295 293 294 293 293 293 293 294 293 294 294 295 295 297 296 295 296 297 298 298 298 298 299 299 300 300 302 310 309 310 312 314 315 318 319 319 319 320 322 323 324 325 325
297 296 297 296 297 298 298 298 298 299 299 298 298 297 298 298 298 297 297 297 297 297 295 295 296 297 297 296 297 295 295 294 294 294 294 294 294 293 293 293 292 293 293 292 293 293 292 291 291 292 292 293 293 294 294 295 294 295 296 297 297 297 297 297 297 298 299 300 302 309 309 309 310 312 314 316 317 318 319 320 321 322 322 323 325
296 297 296 296 297 297 298 298 298 298 298 298 296 296 297 298 298 298 297 298 297 296 295 295 297 295 296 295 296 294 293 293 293 292 293 293 293 294 293 293 292 292 293 292 292 290 290 290 291 291 292 292 292 293 293 293 293 294 294 295 296 297 297 296 297 298 298 298 299 303 308 307 308 310 312 313 315 317 318 319 320 321 322 323 324
296 297 296 296 297 298 298 297 297 298 298 297 295 296 296 297 295 294 295 298 296 296 294 296 295 294 295 295 295 293 293 293 292 292 292 292 293 293 292 292 292 292 292 290 291 290 290 290 290 290 291 291 290 291 292 292 293 293 293 293 294 295 295 296 296 296 297 297 298 300 306 306 307 308 310 313 314 315 316 317 318 320 321 322 322
297 297 296 295 296 297 297 296 297 298 297 296 295 296 296 295 295 296 294 297 295 295 295 294 293 293 293 294 294 293 292 291 292 291 291 292 292 292 291 291 291 291 290 290 290 289 289 289 290 290 290 290 290 291 292 291 292 292 293 293 294 293 293 293 294 294 295 296 297 298 304 306 306 307 309 310 312 314 315 316 317 319 320 320 320
297 296 296 295 296 296 296 296 297 298 296 295 295 295 296 295 296 295 294 294 295 295 295 294 293 292 293 293 293 292 293 292 291 291 291 291 291 290 290 291 290 290 290 289 290 290 289 289 290 290 290 290 290 290 291 290 291 292 292 292 292 292 292 292 292 293 293 294 295 296 298 303 305 305 306 307 310 312 313 315 315 316 317 319 319
296 296 296 296 296 296 296 296 296 297 296 295 296 295 295 295 296 294 294 295 295 293 293 293 293 292 293 293 292 291 292 292 292 291 290 290 290 290 290 290 289 290 290 289 289 290 290 290 291 291 291 290 290 290 291 290 290 290 291 291 291 291 291 291 291 292 293 293 293 294 294 296 301 304 305 306 308 309 311 312 313 314 316 317 318
297 297 296 296 295 295 295 295 296 296 295 295 296 295 295 296 295 294 295 296 294 294 292 292 292 293 292 292 291 292 291 291 291 291 291 289 290 290 289 290 290 290 289 289 289 289 289 288 289 290 289 289 289 289 292 290 289 289 290 290 290 290 291 291 290 290 291 291 292 292 293 294 295 300 303 305 305 307 309 310 311 313 314 315 316
296 297 296 295 296 296 296 296 295 296 295 296 296 294 295 294 294 294 295 294 292 292 293 292 292 292 292 291 291 290 290 290 290 290 290 289 289 289 289 289 289 289 289 289 288 288 287 288 288 288 290 289 288 288 288 288 288 288 288 289 289 289 289 289 290 290 290 291 291 291 292 293 293 294 296 301 305 306 306 308 308 310 311 312 313
297 296 296 295 296 295 296 295 296 295 296 296 295 294 294 294 293 293 293 293 293 292 291 291 290 291 291 290 291 291 290 290 290 289 289 288 288 288 288 288 289 288 287 288 287 287 288 288 287 287 287 287 287 288 288 287 287 287 288 288 288 288 289 289 289 289 290 290 291 291 292 292 292 293 295 294 299 302 304 305 307 309 310 311 312
297 296 296 296 295 294 295 294 295 295 295 295 294 294 294 293 293 294 292 293 291 292 290 291 291 289 290 290 291 290 290 290 289 289 288 288 287 287 287 288 288 287 288 287 288 287 287 288 287 287 285 285 287 286 286 286 286 286 287 287 287 288 288 288 288 289 289 290 290 290 291 291 292 292 296 294 295 297 303 305 306 307 308 308 309
297 296 296 295 294 294 295 294 294 294 294 294 294 293 293 292 292 292 292 292 290 290 290 291 291 290 289 290 290 290 289 290 289 288 287 287 287 286 287 288 288 287 287 287 286 288 286 288 286 288 287 285 285 285 285 285 285 286 286 286 287 287 287 287 288 288 290 289 289 289 290 291 292 297 293 293 294 295 299 304 305 305 305 306 307
297 296 296 295 294 294 294 294 294 294 294 294 294 293 293 292 291 291 293 291 291 291 290 290 290 289 289 289 290 289 290 289 288 288 287 287 286 286 287 287 287 287 287 286 285 286 286 286 285 286 286 285 284 284 284 285 286 286 286 286 286 286 286 287 287 290 288 288 288 289 290 291 291 292 292 293 293 294 295 299 304 305 306 306 306
297 296 296 295 294 294 294 294 294 293 293 294 293 292 292 291 290 291 290 290 290 290 289 289 289 289 288 290 290 289 290 289 288 288 286 286 286 286 286 287 286 286 286 285 285 286 286 285 285 284 285 285 284 284 284 285 286 286 285 285 286 286 286 287 288 287 288 288 289 291 292 291 292 292 292 293 294 294 295 296 295 296 297 303 305
296 296 295 295 294 294 293 294 294 294 293 293 293 291 290 290 289 289 288 289 289 289 290 288 289 288 290 290 289 288 288 288 288 287 286 286 285 285 285 286 286 285 285 284 284 284 284 284 284 284 284 284 285 285 285 284 284 284 285 285 286 286 286 287 287 287 288 289 289 290 290 291 291 292 293 293 294 294 294 294 294 294 295 298 303
295 294 295 294 294 294 293 292 293 293 293 292 291 290 289 288 288 288 288 288 289 289 289 289 289 288 289 289 289 288 288 288 288 287 286 287 285 285 285 285 285 285 284 284 285 285 285 284 284 284 284 283 283 284 284 284 283 282 283 283 283 285 286 287 286 287 287 288 289 289 290 290 291 291 292 293 293 293 294 294 294 294 294 295 296
294 294 294 294 294 294 293 293 293 293 292 292 292 290 290 289 289 288 288 289 288 288 287 287 288 290 289 289 288 288 288 287 287 286 286 285 285 284 284 284 285 284 284 285 285 286 284 283 284 282 284 283 282 283 284 284 281 280 279 280 281 283 285 286 286 287 287 288 288 289 289 290 289 289 292 293 291 291 291 291 291 292 292 293 294
294 294 294 293 293 293 293 293 293 292 292 292 291 290 290 290 289 289 289 288 289 289 288 288 289 288 288 288 288 288 288 287 287 287 286 286 284 284 283 284 284 284 284 283 283 283 283 283 283 282 281 282 283 284 284 284 280 281 281 279 278 278 282 284 285 284 284 284 285 285 286 286 286 287 288 288 288 289 290 290 291 291 291 292 292
293 293 293 293 293 293 293 293 293 292 292 292 292 291 291 290 290 290 290 289 288 289 289 289 288 288 287 288 287 287 287 287 286 286 286 285 284 284 283 283 283 284 283 282 282 282 282 282 283 283 282 280 280 281 284 283 282 280 276 278 277 277 276 280 279 281 283 284 284 284 285 286 287 287 287 287 287 288 289 289 289 290 291 291 291
293 293 293 293 293 293 293 293 293 292 292 292 291 291 291 290 290 289 288 288 288 286 286 285 287 287 287 286 286 287 287 286 286 286 286 285 285 284 283 283 283 283 283 282 281 281 282 282 282 282 281 280 279 280 282 283 282 283 280 277 275 275 275 277 278 279 281 282 283 284 284 284 284 285 285 286 287 287 288 288 288 289 289 290 290
293 293 293 293 293 293 293 293 292 292 291 291 291 291 290 289 288 286 285 285 284 284 284 285 285 286 286 286 287 287 287 286 285 285 285 285 284 284 283 283 282 283 283 282 282 282 281 281 282 282 281 282 281 280 280 282 284 284 284 281 280 276 275 277 276 275 280 282 282 282 282 283 284 285 285 285 285 286 287 287 288 288 288 289 289
293 293 292 292 292 292 293 293 292 292 292 291 291 291 290 289 288 287 287 286 285 285 286 286 286 286 286 286 286 286 286 286 285 285 285 284 284 284 283 283 282 282 283 281 281 281 281 281 282 282 282 283 282 280 279 280 281 282 283 283 283 282 281 278 275 277 275 279 280 280 281 282 283 283 284 284 285 285 286 286 286 287 287 288 288
293 293 292 292 292 292 292 292 292 292 291 291 291 291 289 288 287 287 287 286 285 285 286 286 287 286 286 286 285 285 286 285 285 284 284 284 284 283 283 282 282 282 282 281 281 281 282 283 282 282 282 282 281 280 279 280 279 279 282 281 281 281 280 280 280 277 276 274 276 280 281 281 281 282 283 283 284 284 284 285 285 286 286 287 288
293 293 292 292 292 292 292 292 292 291 291 291 290 290 290 288 288 287 286 286 286 286 286 287 287 287 285 285 285 285 285 285 284 284 284 284 284 282 282 282 281 281 282 282 281 281 280 280 280 280 280 281 281 281 280 279 279 279 279 278 279 278 278 279 278 278 276 275 275 276 277 280 281 282 282 282 283 284 284 284 285 286 286 286 287
293 293 292 292 291 292 291 291 291 291 291 290 290 290 289 289 287 287 286 285 286 286 286 286 285 285 284 284 284 284 284 284 284 284 283 283 283 282 282 281 281 281 282 280 280 280 280 280 280 280 281 280 281 281 280 279 279 279 279 278 277 276 276 276 276 276 276 277 274 275 277 276 276 279 281 281 282 282 283 283 283 284 284 285 286
292 292 292 291 291 291 291 290 291 291 291 290 290 289 289 288 287 287 286 286 286 286 285 284 284 283 283 283 283 283 283 283 283 283 283 282 282 282 281 281 281 281 281 280 280 280 280 280 280 281 281 280 280 280 280 280 280 279 278 278 277 277 276 275 275 276 275 274 275 275 276 277 277 276 279 281 281 281 282 282 282 282 283 284 284
Wind_Speed
1 5 6 10 12 11 12 12 12 12 13 14 14 15 15 15 14 14 14 13 13 13 13 12 12 12 12 10 12 11 13 12 12 13 13 14 14 14 13 13 13 12 12 11 12 12 11 10 10 10 11 12 12 12 12 13 14 13 12 12 12 12 12 12 12 11 9 9 10 10 10 10 11 11 9 6 5 5 4 4 3 2 2 3 6
3 5 6 6 12 10 11 11 11 12 12 14 15 14 14 15 14 14 14 13 14 13 14 14 13 13 12 12 13 13 13 14 13 13 14 14 15 15 15 14 14 13 14 15 14 13 13 12 12 13 13 12 12 12 12 12 13 13 12 12 12 12 11 12 12 11 9 8 9 10 10 11 12 11 8 5 3 5 4 4 3 1 2 6 6
3 6 6 7 11 10 11 10 10 10 11 12 13 13 14 13 13 13 13 13 13 13 13 14 14 15 16 15 16 15 16 15 15 15 16 17 17 17 17 17 17 15 15 15 15 14 14 13 14 14 16 16 15 15 14 13 13 13 12 13 13 13 12 12 13 12 11 10 10 10 10 10 10 11 7 2 3 6 6 5 4 3 2 7 7
3 5 7 10 12 10 10 10 9 9 10 12 13 13 12 12 12 11 11 11 12 12 13 14 15 16 16 16 16 17 17 16 17 17 17 16 16 16 16 16 16 17 17 16 16 16 16 16 15 15 17 16 16 16 16 15 14 14 13 13 13 13 14 13 13 12 12 11 12 12 5 5 7 6 2 2 5 7 6 5 4 4 6 7 7
3 3 7 8 7 7 10 11 9 9 10 11 11 11 10 11 10 11 11 11 12 12 12 12 13 14 14 13 14 15 15 15 16 16 15 15 15 16 16 16 16 16 16 17 18 18 18 17 15 16 16 16 16 16 15 16 15 15 14 14 14 14 14 14 13 14 13 11 13 10 5 5 5 5 6 6 6 6 5 4 3 6 6 7 7
2 3 6 8 5 3 9 9 9 9 10 11 11 11 11 12 12 11 11 11 10 10 11 11 12 12 13 14 14 15 15 15 15 15 15 15 15 15 15 15 16 16 16 16 16 17 18 18 18 16 17 16 16 15 15 15 15 16 16 15 14 14 14 15 16 16 14 12 10 6 5 3 3 2 7 7 6 5 3 4 6 8 8 8 8
2 4 7 7 5 4 7 9 9 10 12 12 11 12 12 12 13 12 12 11 11 11 11 11 12 12 13 13 14 14 15 15 15 15 15 15 15 15 15 15 15 15 15 15 15 16 16 17 16 16 16 15 15 15 15 15 15 15 15 16 15 15 14 14 14 16 15 10 5 5 5 3 1 1 4 7 7 8 8 9 10 9 8 9 9
1 4 7 6 4 5 9 10 10 11 12 12 12 12 12 12 12 12 12 12 12 12 13 12 13 13 13 13 13 14 14 14 14 14 14 14 14 15 15 15 15 15 15 15 14 15 15 15 15 15 16 15 15 14 14 14 15 14 14 15 15 14 13 13 14 13 13 7 6 5 5 3 4 3 6 6 6 6 6 8 9 11 12 11 8
3 6 8 6 5 8 9 10 10 11 12 12 12 12 12 12 12 12 12 12 12 12 12 13 12 13 13 13 13 13 13 14 14 14 14 14 14 14 14 14 14 14 14 14 14 14 14 14 14 14 15 15 15 15 15 15 15 15 14 14 14 14 14 14 14 13 7 5 6 6 5 4 4 4 7 12 10 5 8 7 6 9 10 10 8
3 8 7 5 4 8 9 10 11 11 11 12 12 12 12 12 12 12 12 12 12 12 12 12 12 12 13 13 13 13 13 13 13 13 13 13 13 13 13 13 13 13 14 14 14 14 14 14 14 14 14 14 14 15 15 15 15 15 15 15 14 14 13 14 15 9 6 6 7 7 6 8 4 3 5 8 9 8 6 5 4 4 6 9 7
5 8 7 6 4 9 10 10 11 11 12 12 12 12 12 12 12 12 12 12 12 12 12 12 12 12 12 13 12 13 13 13 13 13 13 13 13 13 13 13 13 13 13 13 13 13 13 14 13 14 14 14 14 14 14 14 14 14 14 14 14 14 13 14 12 5 6 7 6 5 5 9 5 4 5 11 9 7 4 4 4 6 9 11 13
6 7 7 5 6 9 10 10 11 11 11 12 12 12 12 12 12 12 12 12 12 12 12 12 12 12 12 13 13 13 13 13 13 13 13 13 13 13 13 13 13 13 13 13 13 12 13 13 13 13 13 13 13 13 13 13 13 12 13 13 13 14 14 14 7 6 6 6 7 6 6 5 5 5 10 11 9 8 6 6 8 9 10 11 12
6 8 7 5 4 7 10 10 10 11 12 12 12 12 12 12 12 12 12 12 12 12 12 12 12 12 12 13 13 13 13 13 13 13 13 13 13 12 12 12 12 12 13 13 13 13 13 13 13 13 13 12 12 12 13 13 13 12 12 12 12 12 12 13 6 6 5 6 6 6 6 5 4 7 10 10 9 9 8 7 8 9 10 11 11
6 7 6 6 4 8 11 11 11 11 12 12 12 12 12 12 12 12 12 12 12 12 12 12 12 13 12 13 13 13 13 13 13 13 13 13 13 13 13 13 13 13 13 13 13 13 13 13 13 13 12 12 13 13 13 13 12 12 12 13 12 12 12 8 7 5 5 6 6 6 6 5 4 7 6 8 9 9 8 8 8 8 10 11 11
6 6 7 6 4 4 11 12 12 12 12 12 12 12 12 12 12 12 12 12 12 12 12 12 13 13 13 13 13 13 13 13 13 13 13 13 13 13 13 13 13 14 14 14 14 14 14 14 14 14 13 13 13 13 13 13 13 12 12 12 13 13 13 6 6 5 5 6 5 6 5 4 9 12 11 9 8 8 8 8 8 8 9 10 11
6 5 6 7 6 4 4 9 12 13 12 12 12 12 12 12 12 12 12 12 12 12 12 12 12 12 13 13 12 13 13 13 14 14 14 13 14 14 14 14 14 14 14 14 15 15 15 15 16 16 16 15 15 14 13 12 12 12 13 13 13 14 14 9 6 6 6 6 6 5 6 5 9 13 13 11 8 8 8 9 9 10 10 10 11
5 5 5 7 6 6 6 4 8 13 12 11 11 11 11 11 12 12 12 11 11 12 12 12 11 12 12 12 12 12 13 13 13 14 14 14 14 14 13 13 13 14 13 13 14 14 15 15 16 16 16 17 17 16 15 14 14 13 13 13 13 14 14 11 6 5 6 6 5 5 6 5 7 11 12 11 10 10 10 11 11 12 12 12 12
5 5 5 5 6 6 6 6 6 6 6 8 9 10 10 11 11 11 11 11 11 11 11 11 10 10 10 10 11 12 11 12 12 12 13 13 12 12 12 12 12 12 12 11 12 12 12 12 13 14 14 15 15 15 15 15 15 16 16 16 16 14 13 12 4 5 5 5 5 5 5 11 16 15 14 13 12 11 11 12 13 12 12 13 13
5 6 6 5 5 8 8 7 5 6 6 5 3 4 9 9 10 10 11 11 10 10 10 9 9 8 8 7 8 9 9 8 9 9 9 11 10 9 10 10 11 11 11 10 10 11 11 11 11 12 12 13 14 14 13 13 14 15 16 17 17 15 14 7 5 7 7 7 7 7 6 15 16 16 16 16 17 16 16 14 14 15 15 14 14
5 5 6 5 6 6 6 5 5 5 6 6 5 3 6 9 9 10 10 9 9 8 8 8 6 4 3 3 4 6 7 5 7 4 7 7 9 7 9 10 11 12 12 11 11 12 12 11 12 12 12 11 12 12 12 10 13 13 13 15 14 15 7 6 7 6 6 6 6 6 8 16 16 15 16 16 16 17 17 17 17 16 16 16 15
4 4 5 5 6 7 7 6 5 6 7 7 6 4 5 9 7 8 8 7 7 6 6 6 6 3 4 6 5 4 5 4 3 2 5 3 6 6 8 10 11 12 13 11 11 13 13 12 12 14 13 12 13 12 10 13 13 13 13 11 12 7 6 7 8 6 6 6 6 5 12 15 17 16 15 15 16 16 17 17 17 17 17 16 17
6 5 5 5 6 6 6 7 6 6 6 6 5 5 5 7 6 4 4 4 4 5 2 2 3 0 3 1 3 2 5 3 2 2 1 1 2 3 5 8 11 12 14 12 12 14 14 13 13 15 13 14 13 7 6 8 11 12 11 12 7 6 6 7 7 7 7 7 6 7 14 13 13 14 15 15 15 15 16 17 19 18 18 17 17
7 6 6 7 5 5 5 7 6 6 7 5 5 6 6 4 5 5 4 5 2 1 3 3 1 1 1 4 3 1 2 3 2 1 1 1 1 2 4 8 12 11 14 12 14 14 14 14 14 14 14 13 7 6 6 7 7 9 9 7 6 7 7 6 6 6 7 7 7 11 16 16 16 15 15 14 14 14 15 15 17 18 18 18 18
8 8 7 6 7 7 6 7 7 7 6 6 5 6 5 6 6 6 6 6 4 3 3 3 1 1 2 3 2 0 3 4 3 6 5 4 4 6 8 9 10 9 13 7 10 12 15 13 14 14 8 6 6 6 6 6 6 6 6 6 5 5 5 5 6 6 6 6 6 13 17 18 19 18 17 16 15 14 14 15 15 16 17 17 18
8 7 7 8 8 8 6 7 7 7 6 7 6 7 6 6 7 6 6 7 5 6 5 4 1 1 2 2 1 0 3 4 4 4 4 4 5 5 5 5 5 4 7 5 5 5 6 6 6 7 6 6 7 6 6 7 6 6 6 6 5 4 4 5 5 6 6 5 5 11 16 17 18 19 19 18 17 16 16 15 15 16 17 17 17
8 9 10 9 9 9 7 7 7 7 6 7 6 6 6 6 5 5 6 4 4 4 6 6 3 2 1 2 1 2 3 4 4 4 4 5 5 5 4 4 5 3 4 5 4 4 5 5 5 5 6 6 6 6 6 6 6 7 7 6 6 6 6 6 6 6 6 6 7 12 16 17 18 18 18 19 19 19 18 18 17 16 16 17 17
9 9 9 8 9 9 8 8 8 7 6 7 5 6 6 6 6 6 5 6 5 4 5 6 4 1 1 1 2 2 3 4 4 4 4 5 5 4 4 3 4 3 3 4 4 4 6 6 6 5 6 5 6 6 6 5 6 6 6 5 6 6 6 6 5 6 6 6 7 12 15 17 18 19 20 20 20 20 20 19 19 18 17 17 17
8 9 9 9 10 10 10 10 8 8 6 6 6 7 5 5 5 4 4 6 6 4 5 6 5 4 3 2 2 3 4 4 3 4 4 4 3 3 2 3 4 3 4 4 5 4 6 5 5 4 5 5 6 6 6 5 6 5 5 6 6 6 6 6 6 5 6 6 6 9 12 17 19 20 20 21 21 21 21 20 20 20 19 18 18
11 10 10 10 11 11 11 11 9 9 7 6 6 6 6 5 6 5 3 4 4 5 6 5 5 6 3 2 2 3 4 4 3 3 3 3 2 2 3 3 3 3 5 4 5 5 6 6 6 5 5 6 6 7 6 6 5 6 6 6 5 5 5 6 6 6 5 6 6 7 11 15 18 19 20 21 21 22 22 21 21 20 20 19 19
12 11 11 10 10 11 12 12 11 10 8 7 6 7 6 6 6 5 6 4 4 6 5 5 6 6 4 3 3 3 5 4 3 2 3 2 1 3 3 3 3 3 4 5 5 6 6 6 6 5 6 6 6 7 7 6 6 6 6 7 7 6 6 6 6 6 6 6 6 7 11 12 17 19 20 21 21 21 21 21 21 21 20 20 20
11 12 11 10 10 12 11 11 11 9 8 8 7 7 7 6 6 6 6 5 5 6 4 5 5 6 4 4 4 3 4 4 3 2 3 2 3 3 2 2 3 4 5 5 5 5 6 6 6 6 6 6 6 6 6 7 6 6 6 6 7 7 7 7 7 7 7 6 5 6 8 13 14 18 20 21 21 22 22 22 22 22 21 21 20
13 13 11 10 11 13 13 11 12 10 10 8 7 8 7 7 6 7 7 5 6 5 5 6 5 6 4 3 4 3 3 4 3 2 1 2 3 2 1 3 3 3 5 5 6 5 5 5 5 4 5 5 6 6 6 6 6 6 6 6 6 7 7 7 7 7 6 7 7 7 7 8 12 15 17 20 21 22 22 22 21 21 21 21 21
9 12 11 12 13 13 13 12 12 10 11 10 8 7 8 7 7 6 6 6 6 6 5 6 6 5 4 4 4 3 3 4 4 2 1 2 3 2 2 2 2 4 5 4 4 3 4 6 6 4 5 5 6 6 5 6 7 7 6 6 6 6 7 6 7 7 7 6 7 7 7 7 8 11 14 14 18 21 21 21 21 21 21 21 21
10 9 11 14 12 9 9 9 11 12 11 9 8 8 8 8 7 7 6 7 5 6 6 6 7 6 5 4 4 4 4 4 3 3 0 2 1 1 2 1 3 4 4 3 3 4 5 5 4 5 5 5 6 6 6 7 6 6 6 6 6 6 6 7 7 7 7 7 7 7 7 7 6 6 7 12 13 16 19 19 20 20 20 21 21
9 10 15 14 12 11 10 9 11 11 10 9 10 8 7 7 7 7 7 6 6 6 7 6 6 7 6 5 4 4 4 4 2 2 2 1 1 2 2 2 4 3 2 2 3 3 3 4 4 5 5 4 5 5 6 7 7 7 6 6 7 7 7 8 8 8 8 8 7 7 7 7 6 6 6 6 8 11 15 19 21 20 20 20 20
14 13 11 12 13 12 11 10 11 12 10 10 9 8 8 7 7 7 8 5 7 6 6 6 6 7 7 6 5 4 5 5 3 2 2 2 1 1 1 3 3 2 1 1 1 3 3 3 3 4 5 5 5 6 6 6 7 8 7 7 7 7 8 8 8 9 8 7 7 7 7 7 7 7 7 7 7 8 13 16 17 18 19 19 20
13 13 14 13 13 12 13 12 14 13 11 9 9 7 8 7 7 7 7 5 6 6 7 7 7 6 7 7 6 5 5 4 3 3 2 2 1 2 1 2 2 0 0 1 1 2 3 3 3 2 2 5 6 7 6 6 7 8 8 8 8 8 9 8 8 8 8 8 8 8 7 7 7 8 7 6 7 6 8 12 14 18 18 18 19
12 13 14 15 15 13 12 11 10 10 10 9 8 8 7 7 6 7 6 5 5 6 6 7 7 6 6 7 7 6 6 5 4 4 3 2 2 1 1 1 1 0 0 1 1 2 3 3 3 2 3 4 5 6 8 8 7 7 8 8 10 9 9 9 9 9 8 8 7 8 7 7 6 7 7 7 7 7 7 9 13 14 14 14 17
11 13 13 12 11 11 10 10 11 11 10 9 7 7 7 6 6 6 6 5 4 6 6 7 7 7 6 6 7 6 6 6 4 4 3 3 3 2 2 1 1 0 0 1 1 2 2 3 4 6 4 3 5 6 8 8 8 8 9 11 10 11 9 9 10 8 7 7 7 8 6 7 7 7 7 7 6 6 7 6 6 5 6 11 15
11 11 13 12 11 11 9 9 10 10 9 8 8 7 7 7 8 6 5 6 6 5 6 7 6 7 6 7 7 6 6 6 5 4 4 3 3 3 2 1 0 0 0 1 1 2 3 4 4 4 7 6 4 6 6 6 7 8 11 10 9 11 11 11 10 9 6 6 7 6 6 7 7 7 7 7 6 6 6 5 5 6 6 9 14
11 12 13 13 13 14 13 14 11 12 11 11 10 10 10 8 6 8 9 7 8 6 6 6 7 6 6 7 6 6 6 6 5 5 5 4 3 2 2 1 2 1 1 1 1 1 2 2 3 3 5 7 6 4 5 5 8 9 5 9 10 10 13 12 12 9 7 6 5 6 6 6 6 6 6 6 5 5 5 6 7 7 8 7 8
11 13 15 15 13 14 15 13 11 12 11 12 11 11 10 11 11 10 8 9 9 9 8 7 7 6 7 7 7 6 6 6 6 5 4 5 4 4 3 3 1 0 1 1 1 1 2 3 3 3 2 4 5 4 7 6 4 5 12 12 8 7 8 10 10 6 6 4 5 6 6 6 8 9 7 6 5 6 8 9 9 9 9 9 9
14 15 13 13 13 13 13 12 12 12 11 12 11 11 9 8 8 7 9 7 5 5 6 6 6 6 7 7 7 7 7 6 6 6 5 4 4 3 3 2 1 1 0 1 1 1 1 2 2 3 5 3 4 5 6 2 5 6 8 9 7 10 2 5 1 3 10 11 11 10 11 10 11 9 6 6 7 8 7 7 8 9 10 10 8
11 11 12 15 12 12 12 13 13 12 11 11 11 9 9 7 6 7 7 8 7 7 7 7 7 7 7 7 7 7 7 6 6 5 4 4 4 4 3 2 2 1 1 1 1 2 1 3 3 3 2 6 3 3 3 4 3 6 6 1 9 4 11 2 7 9 9 10 8 8 6 5 6 6 7 9 9 8 8 8 10 10 10 10 10
13 13 14 14 11 14 14 14 13 13 11 11 12 10 9 8 6 7 5 7 5 6 6 6 7 7 6 7 8 6 6 7 6 6 6 5 4 4 3 3 2 2 1 1 1 2 3 3 2 2 3 4 6 3 3 3 5 4 3 6 5 2 2 11 16 11 7 0 5 8 9 11 10 8 7 7 6 8 8 9 9 10 10 10 10
13 13 12 13 11 12 13 13 11 11 12 12 13 12 11 12 11 11 10 8 8 9 11 12 10 10 10 7 6 7 6 6 6 6 6 5 5 5 4 3 3 2 3 3 3 3 3 3 3 3 4 4 5 6 6 3 5 5 6 6 6 6 11 8 3 12 6 8 13 7 7 5 5 7 6 8 9 9 8 9 10 10 10 10 11
13 10 10 11 12 12 13 14 13 11 11 12 13 11 11 11 14 14 14 14 13 9 7 7 8 7 6 8 8 7 7 7 6 6 6 5 5 4 4 4 3 4 3 3 3 3 3 3 3 3 3 3 3 7 7 6 4 5 6 7 7 6 5 6 7 10 19 12 8 4 6 4 7 7 9 7 7 9 9 9 11 10 10 10 10
11 10 11 12 14 14 14 14 11 11 11 11 14 13 13 12 12 11 10 11 11 11 10 9 8 8 9 8 7 7 7 7 7 6 6 6 5 5 5 4 4 4 3 5 4 4 4 3 3 3 3 4 5 7 8 5 6 4 3 5 4 4 4 5 5 6 11 16 28 8 8 8 6 5 6 11 10 9 10 9 9 10 10 11 10
11 13 13 12 12 12 13 12 13 12 11 13 14 13 12 12 12 11 10 8 8 7 7 7 8 9 9 7 8 8 7 7 7 7 6 6 6 5 5 5 5 4 4 5 4 4 4 4 4 4 4 5 5 6 6 6 5 7 5 4 4 4 4 4 4 4 6 11 20 19 22 11 7 9 11 8 6 7 10 10 9 11 11 11 11
11 10 10 10 11 11 13 15 15 13 12 14 14 14 13 11 12 12 12 9 8 7 9 9 8 9 9 9 8 8 7 7 7 6 6 6 6 5 5 5 5 4 3 4 4 4 4 4 4 4 5 6 5 6 7 7 6 6 6 5 4 3 3 3 4 5 7 8 13 20 20 21 25 15 5 6 13 8 8 11 12 12 12 11 11
9 11 11 12 11 12 13 16 16 12 13 15 15 16 14 13 13 13 13 12 11 9 10 9 9 8 9 8 8 7 7 7 7 7 7 6 6 5 5 5 4 4 4 4 5 5 5 5 5 6 6 7 6 6 8 7 6 6 6 6 6 6 6 6 6 5 5 7 9 15 16 16 18 24 23 10 11 11 10 12 12 12 11 11 11
Wind_Direction
31 96 75 57 49 48 49 54 60 65 67 70 68 65 60 58 61 62 63 63 63 62 63 61 63 63 60 52 62 63 67 66 64 62 63 56 52 49 48 44 37 32 29 30 30 25 22 22 19 22 27 28 22 16 14 11 12 10 8 9 9 9 10 10 11 11 5 359 353 344 334 321 310 304 303 315 335 354 37 25 22 343 1 30 16
154 92 85 64 63 58 53 52 59 62 65 69 67 65 65 64 64 65 64 65 64 62 63 61 58 64 64 62 64 60 65 64 60 60 57 55 50 45 45 44 41 36 34 33 30 31 31 29 33 36 35 33 30 24 19 15 13 10 8 5 3 3 5 3 4 2 2 355 342 333 323 316 303 291 288 295 1 15 37 29 27 19 345 341 6
129 106 91 77 68 67 64 62 61 66 67 66 66 66 68 64 65 64 63 60 62 60 58 61 63 58 58 56 55 56 58 60 59 56 55 51 46 39 36 37 38 36 35 35 35 32 35 34 40 43 41 37 32 29 28 21 17 14 10 6 2 3 3 3 359 357 355 351 334 325 321 307 291 284 268 264 37 27 49 37 23 11 327 344 341
103 111 100 84 65 70 69 68 67 71 70 71 73 70 67 68 65 68 66 64 65 61 60 61 60 57 54 53 53 51 52 53 52 51 48 47 44 39 36 32 32 31 33 34 34 34 35 36 43 43 43 37 32 27 25 24 23 22 18 13 9 8 2 360 359 353 352 348 332 323 309 287 280 292 119 69 32 39 50 34 24 353 347 345 337
104 95 129 87 73 60 80 76 74 77 82 81 80 80 81 77 79 80 74 73 70 65 58 57 58 60 57 58 57 55 54 53 52 51 50 47 46 43 38 35 33 32 31 30 30 30 30 35 35 45 46 35 31 29 25 22 20 19 20 20 18 15 12 4 359 357 352 344 325 318 294 274 283 83 94 70 28 51 39 21 2 350 349 341 337
88 102 91 91 77 58 85 88 90 90 92 91 89 89 86 83 80 81 84 79 77 73 68 63 59 59 58 59 58 57 57 55 54 53 51 50 49 46 43 39 36 33 32 31 29 29 31 29 30 36 44 35 28 26 25 22 23 18 18 21 21 20 17 11 4 357 345 334 317 304 288 286 4 95 6 359 19 56 54 7 357 354 349 351 346
66 79 78 82 82 63 85 100 99 100 95 94 93 88 84 83 83 84 83 82 81 78 74 70 69 66 64 61 60 59 58 57 55 54 52 50 48 45 43 40 37 34 33 32 30 30 29 29 26 24 34 33 26 23 21 20 18 15 13 15 18 24 18 12 3 349 335 328 308 297 308 317 16 26 350 356 18 27 18 8 356 346 352 15 16
127 96 83 73 83 84 94 96 103 99 94 93 91 88 87 86 84 85 84 83 81 78 75 73 70 67 65 63 61 59 57 57 55 54 52 50 47 44 42 39 36 34 32 32 32 32 31 29 28 25 27 28 24 22 18 16 15 15 11 10 11 13 10 5 359 343 322 314 304 303 308 345 2 1 343 339 352 352 13 12 2 354 358 2 357
132 100 98 91 77 83 94 99 98 96 96 94 92 92 90 87 85 84 84 83 80 78 76 74 71 69 66 64 62 60 58 57 57 55 54 52 50 47 44 40 37 33 30 30 30 30 30 31 30 28 27 25 23 20 19 17 14 12 11 10 9 6 3 0 352 336 316 299 299 302 314 345 357 357 333 334 331 10 16 31 17 353 344 338 326
94 65 75 85 85 88 93 94 94 95 95 94 92 92 91 89 88 85 84 81 79 79 77 75 73 71 68 65 63 61 60 58 58 56 54 54 52 50 47 44 41 37 33 30 29 29 28 28 28 26 26 24 22 19 16 14 12 11 9 8 7 6 4 359 342 329 315 313 323 322 328 334 335 331 315 22 16 20 33 49 18 356 328 323 302
107 92 82 69 71 101 99 97 98 98 96 95 92 92 89 87 87 86 84 81 80 79 78 76 74 72 69 66 63 60 58 57 55 54 52 51 49 46 45 42 39 38 35 32 29 27 27 27 25 24 23 20 17 15 13 12 8 7 6 5 3 2 2 355 337 313 319 315 312 317 320 327 323 310 311 334 349 348 52 40 11 354 343 335 331
97 95 94 83 60 93 102 104 105 103 102 100 98 95 93 92 89 89 86 84 83 81 78 77 75 72 69 66 63 60 56 53 53 52 51 49 47 45 42 38 35 34 33 31 26 25 24 24 23 21 21 17 13 8 6 5 5 5 3 2 1 358 356 354 347 332 321 315 315 314 321 318 321 321 317 319 333 356 13 355 353 351 341 331 329
108 109 109 91 55 86 102 104 105 104 102 101 100 97 97 96 94 92 89 87 86 83 80 78 75 73 71 69 67 64 60 56 55 52 50 47 45 44 41 39 35 33 30 29 27 25 23 23 22 19 17 14 9 7 4 0 359 1 1 359 359 355 352 348 343 328 313 311 311 316 318 316 308 305 306 308 316 331 342 343 341 339 334 328 327
110 113 111 100 93 77 91 98 99 99 99 99 96 96 95 95 94 93 92 90 88 85 83 80 78 76 74 71 69 66 62 59 55 52 48 45 42 39 37 35 33 30 28 25 24 21 20 21 19 18 15 10 6 3 0 359 359 1 358 355 353 350 346 341 331 319 315 315 312 307 303 295 280 277 302 314 316 323 334 337 335 331 329 326 321
123 118 117 130 115 91 83 88 91 93 94 94 93 95 95 95 94 93 92 91 88 86 84 82 80 78 75 73 69 65 62 59 54 50 47 44 39 36 34 32 30 27 24 23 21 19 16 15 14 12 10 7 4 1 359 359 1 1 359 354 348 342 337 331 323 306 301 299 295 294 291 318 322 328 335 331 322 316 322 324 327 327 320 317 319
111 128 141 132 133 132 97 86 89 90 89 90 92 93 95 95 94 93 91 88 85 84 81 80 79 78 76 72 69 64 61 56 52 47 43 40 36 32 30 29 28 25 22 21 19 16 13 12 9 7 4 2 1 360 1 2 1 359 356 351 344 337 330 326 313 305 299 292 291 297 306 305 306 305 306 308 313 312 311 313 315 319 318 315 314
134 146 125 139 150 124 123 110 101 90 85 86 90 93 96 95 93 92 90 87 86 82 80 79 77 76 74 71 66 64 61 57 53 48 41 36 34 29 28 28 26 22 21 21 18 16 12 9 6 3 0 358 356 356 358 358 357 356 353 350 343 335 326 322 304 295 296 292 287 286 283 284 313 319 313 314 318 315 314 313 313 314 315 312 311
141 142 138 144 143 134 123 140 131 111 100 83 84 95 96 98 97 93 90 86 82 79 78 77 75 76 78 75 72 67 64 61 57 55 48 38 31 27 25 27 24 22 19 19 18 16 12 8 5 1 359 357 355 354 354 352 352 353 350 346 342 337 325 324 305 291 295 307 320 331 337 11 3 355 346 336 331 323 314 312 314 315 314 312 310
167 163 151 157 140 132 147 161 156 142 136 115 90 89 99 100 98 93 90 87 84 82 80 77 78 80 86 94 97 94 81 78 74 67 64 53 41 24 19 26 25 22 19 18 17 14 10 8 5 3 359 356 355 352 349 345 350 349 347 343 338 334 333 333 356 353 349 348 344 337 337 1 355 349 350 348 348 342 331 328 325 321 316 314 311
180 163 157 159 151 139 145 140 137 146 124 122 121 111 103 99 96 93 90 91 92 95 97 93 91 103 113 167 174 147 117 86 77 82 76 66 53 36 22 24 23 20 16 14 13 12 7 6 5 3 360 356 353 345 334 346 349 346 346 340 331 332 335 3 357 346 334 330 326 327 328 344 342 337 337 336 336 337 334 328 323 320 317 314 312
172 177 167 167 149 150 151 149 149 136 128 132 138 137 134 116 104 106 105 102 99 102 117 141 156 169 204 186 209 135 99 92 72 28 81 103 67 40 24 20 23 18 13 9 11 9 5 4 3 1 358 359 358 354 346 357 349 348 345 333 328 332 349 358 343 332 334 329 330 333 337 338 336 334 333 330 328 326 322 320 321 322 320 314 308
172 183 181 166 158 161 159 148 140 138 139 137 148 155 175 157 149 157 147 140 154 145 103 110 89 302 236 177 100 61 116 110 113 77 89 64 72 60 20 19 20 16 11 9 14 10 4 7 4 2 3 5 360 348 348 345 343 343 343 337 341 350 358 346 337 334 330 333 336 329 330 329 329 329 328 327 325 321 317 314 313 312 312 313 316
178 179 189 168 168 162 165 144 147 150 143 153 158 167 177 156 152 136 137 142 162 104 111 81 63 323 322 88 78 3 108 111 101 41 36 136 152 33 3 26 17 18 8 12 14 6 4 6 4 3 4 359 356 344 348 344 337 338 341 338 347 352 343 337 335 327 329 329 333 325 325 327 325 324 321 319 317 315 314 311 309 307 307 307 307
177 179 177 166 169 162 175 152 157 154 150 161 171 171 174 160 165 166 164 160 156 138 103 91 78 347 7 74 96 292 77 82 103 38 52 51 39 25 22 33 14 15 10 2 18 359 360 357 359 358 357 352 349 346 345 337 330 327 332 334 340 334 331 329 330 327 321 320 316 320 324 323 322 321 319 318 316 313 311 309 308 306 305 304 304
169 162 163 175 175 162 175 153 153 157 166 167 180 176 176 170 160 168 154 148 161 152 142 126 116 56 18 108 148 150 90 91 63 53 42 53 44 28 21 20 18 9 13 3 16 355 351 348 352 350 353 346 345 340 342 333 330 334 332 327 329 326 333 336 324 317 313 310 308 315 319 315 315 315 316 316 316 315 312 309 305 303 303 302 301
158 171 175 172 176 166 166 155 155 172 178 165 180 167 165 156 157 156 147 136 140 142 145 142 116 58 74 327 122 67 84 79 77 62 45 53 53 30 17 20 21 1 20 358 15 0 349 344 352 344 341 341 338 334 327 324 335 331 325 324 330 337 334 330 328 324 323 321 316 311 314 313 310 311 311 311 312 313 312 309 306 301 299 299 298
172 176 164 172 171 164 161 158 163 171 177 173 159 147 180 160 152 154 146 147 153 149 123 108 107 114 59 19 52 69 77 82 71 63 53 59 52 36 10 19 22 2 15 10 13 3 349 349 345 340 341 339 333 329 324 334 332 322 319 327 328 324 322 318 320 316 311 313 313 313 310 310 312 311 311 310 309 308 309 308 307 304 301 298 295
164 170 167 169 174 167 163 162 168 169 181 172 147 165 186 147 142 139 152 155 151 144 127 122 135 100 65 24 3 76 89 80 65 57 58 62 56 43 5 24 12 4 20 16 17 3 353 348 340 338 342 335 332 326 327 327 321 321 328 323 322 320 320 314 307 304 302 301 300 302 305 308 309 307 307 307 306 306 305 304 304 303 302 300 298
173 175 167 166 176 165 164 169 167 170 176 164 164 170 161 136 132 157 152 148 147 141 133 147 135 116 104 66 30 63 68 81 64 67 68 64 53 47 28 30 11 5 33 10 17 7 354 345 335 341 339 336 333 325 322 323 320 320 320 309 304 305 307 308 305 304 302 299 298 294 298 300 302 304 302 302 302 303 302 302 301 300 300 300 300
179 170 168 171 170 164 168 173 168 169 169 168 175 161 156 147 162 166 143 164 157 133 147 158 131 125 125 104 60 76 70 87 77 60 83 66 56 51 37 25 15 16 35 20 11 13 348 336 331 334 335 332 330 317 319 319 321 320 317 317 316 315 311 304 299 298 298 298 296 295 296 295 296 299 300 299 299 299 299 299 299 298 297 298 299
165 176 173 167 170 164 171 173 166 167 167 172 171 158 153 157 168 148 146 172 139 135 162 134 119 110 119 125 103 82 93 78 90 65 73 70 63 61 33 24 27 13 44 25 10 358 337 319 313 315 323 323 313 305 314 312 313 317 312 312 310 309 308 306 307 305 300 292 289 293 294 295 295 295 297 298 298 298 298 298 298 298 298 297 297
172 179 175 161 166 171 169 174 167 167 166 172 162 156 161 158 161 142 159 160 140 164 149 135 122 112 127 133 111 98 111 112 104 92 98 80 75 66 30 40 17 28 40 24 353 330 311 300 302 315 316 307 303 309 301 309 312 308 307 304 302 305 298 294 289 290 293 299 299 296 294 294 294 292 293 296 297 298 298 298 297 297 298 298 298
180 172 168 163 172 171 171 174 166 166 168 169 165 158 157 154 156 156 155 144 160 152 141 143 130 134 138 127 125 139 118 115 108 115 116 106 89 75 38 45 27 55 38 4 332 324 336 327 318 321 322 324 320 309 316 319 309 300 299 295 296 292 289 292 293 293 291 288 287 285 287 289 288 289 289 290 294 297 299 299 299 299 299 299 300
173 171 163 174 171 170 170 167 168 168 171 165 161 156 155 149 153 147 139 146 167 149 151 143 137 142 140 136 136 119 111 101 112 117 80 87 113 93 86 31 52 57 31 347 344 349 324 307 306 333 321 321 314 316 319 308 292 292 293 290 292 291 297 295 291 287 288 287 286 286 284 279 280 284 290 291 291 291 296 300 302 301 301 302 302
165 173 178 172 166 171 170 170 167 167 171 163 163 158 148 151 156 142 146 163 163 150 146 141 141 144 139 151 137 128 106 110 118 128 121 130 100 99 68 81 66 57 31 346 344 315 301 295 328 323 319 321 313 309 307 295 295 295 292 298 297 297 296 292 290 287 283 283 284 284 284 284 286 290 290 288 289 293 295 296 297 298 298 300 301
180 177 168 164 171 173 173 166 165 168 175 162 161 154 151 152 153 143 149 170 156 152 152 147 157 151 147 148 140 132 125 123 130 129 132 102 116 105 119 66 67 69 49 326 310 298 291 312 311 320 323 319 317 303 293 296 300 300 300 298 295 295 292 289 286 283 281 283 281 283 285 286 287 286 285 287 285 281 278 283 291 296 299 301 302
177 170 170 169 171 172 172 167 169 169 172 157 153 147 148 151 151 146 152 152 154 150 149 150 155 148 145 144 148 142 134 133 139 132 135 146 116 102 78 96 86 102 198 253 275 281 314 300 295 296 343 315 314 302 302 300 299 296 300 299 297 296 290 284 279 279 284 281 282 281 281 279 278 278 278 279 282 280 280 281 285 291 294 294 296
178 173 171 172 174 171 173 169 164 163 165 156 153 148 147 144 137 137 143 151 153 151 151 152 157 160 154 149 150 146 142 146 152 159 142 120 122 136 169 156 152 133 132 260 266 283 284 286 307 337 345 314 303 307 305 302 299 299 299 299 297 291 286 284 278 278 277 279 278 278 272 275 275 272 274 273 274 273 276 277 279 282 284 286 291
176 173 169 168 165 167 166 165 162 161 160 151 143 140 136 123 120 125 141 156 159 162 153 157 168 161 158 147 145 146 145 146 155 152 159 160 165 161 148 179 149 147 109 301 302 310 310 351 1 327 318 299 296 294 289 295 300 304 303 299 295 286 280 273 275 273 270 269 272 269 274 270 267 268 265 267 263 265 269 269 274 279 279 282 287
170 168 167 168 165 163 163 162 166 160 152 149 145 145 141 148 146 140 151 167 179 167 167 166 173 164 160 145 147 152 148 154 159 164 157 153 158 173 163 125 125 157 209 306 325 340 343 348 338 332 316 304 290 284 288 299 300 300 297 291 285 290 283 278 274 267 264 260 261 264 269 267 266 266 265 267 267 274 278 285 288 287 288 285 283
170 167 168 174 170 169 166 172 171 165 162 162 166 162 161 159 155 172 176 175 174 171 174 175 174 171 155 146 149 158 151 156 162 156 163 169 164 173 157 167 163 171 205 230 237 334 5 354 316 305 300 302 301 299 302 315 311 298 272 287 292 277 274 275 272 273 268 265 262 267 262 268 267 271 273 269 275 288 297 299 298 298 294 292 285
178 171 175 178 174 170 175 171 171 171 173 173 170 175 177 177 171 178 166 174 172 175 177 184 174 168 153 153 153 167 159 160 164 161 169 163 170 168 164 167 145 161 198 223 320 308 300 285 266 291 253 290 294 310 306 329 311 325 325 319 303 283 272 261 257 255 263 276 283 284 272 274 282 287 283 288 303 301 300 295 291 291 291 291 292
177 179 176 175 174 173 176 173 176 176 177 174 174 179 175 174 171 168 168 165 180 163 161 167 163 160 159 158 162 165 162 168 164 163 164 166 166 157 164 155 158 170 227 306 272 294 270 274 269 265 299 277 279 286 282 301 291 315 292 292 311 329 279 270 313 51 325 295 285 276 275 276 278 279 283 300 296 291 286 285 287 288 288 287 288
179 179 178 180 178 178 177 176 179 179 177 176 177 175 168 162 159 151 161 157 166 162 159 160 163 155 165 164 167 166 168 169 164 161 159 158 160 164 160 152 173 156 182 232 259 258 272 282 269 259 262 300 296 288 296 314 298 325 327 352 303 314 317 164 325 290 256 278 269 264 265 270 282 289 295 288 284 283 282 283 285 283 284 286 290
184 185 182 181 183 180 178 177 179 181 179 174 172 164 155 151 138 117 98 97 98 131 133 157 167 166 156 170 179 169 169 167 164 163 161 165 168 166 161 164 158 178 175 206 230 232 236 235 243 274 268 254 283 280 296 296 277 236 232 325 322 284 246 313 330 305 179 59 253 274 271 279 277 272 275 272 276 278 282 281 279 281 282 285 286
191 191 184 180 177 178 177 178 180 181 180 175 171 169 170 163 155 152 158 159 167 168 183 180 175 179 183 167 165 171 168 164 163 164 163 162 169 168 164 157 162 181 188 209 220 233 242 242 242 233 253 250 266 283 280 274 256 244 230 204 211 258 312 318 22 310 290 220 266 211 249 255 256 278 268 279 278 276 278 281 280 281 283 283 283
195 181 179 180 179 179 180 180 181 181 179 177 173 172 173 177 179 179 177 178 179 195 181 174 175 175 162 169 171 167 169 165 167 164 166 168 166 168 164 164 176 181 197 202 223 223 229 235 242 239 241 258 263 272 271 275 283 263 244 236 242 260 274 313 304 316 316 316 185 250 265 235 261 260 271 260 265 279 280 278 282 280 280 279 278
183 177 182 182 184 183 180 182 180 181 181 175 180 180 179 180 184 188 186 189 189 181 177 177 170 165 167 169 163 166 167 166 165 168 168 168 166 168 163 167 174 193 195 210 214 220 220 236 228 228 239 240 249 257 271 262 259 267 248 267 267 262 247 249 247 260 294 307 308 284 210 212 257 259 244 271 278 273 279 283 280 282 284 282 282
181 184 185 186 183 181 180 179 183 181 182 179 182 185 184 184 186 185 191 197 183 171 167 167 163 163 160 159 159 161 163 165 167 168 172 168 167 169 169 170 178 197 198 211 218 216 222 231 247 256 249 250 236 249 258 261 253 260 274 273 270 256 264 249 262 267 265 299 291 300 308 300 240 222 264 258 241 270 287 286 286 287 285 286 287
186 182 182 181 182 180 183 182 188 183 181 181 184 186 186 182 188 192 192 186 176 168 163 166 159 155 155 159 157 159 165 167 170 169 169 171 167 167 169 173 184 194 199 207 217 227 233 233 232 234 244 252 250 253 254 261 252 255 244 254 253 275 283 276 256 249 265 239 266 297 306 313 315 304 192 268 293 285 283 287 289 286 285 286 285
180 181 183 185 183 185 186 190 190 183 182 184 184 189 187 190 193 191 191 186 179 168 160 161 154 154 158 163 166 167 164 168 165 173 170 168 170 169 169 177 183 193 201 208 220 218 221 227 235 240 242 244 250 250 257 258 253 251 251 240 241 235 238 251 256 243 248 267 285 280 288 294 298 302 301 301 282 284 283 283 280 280 282 279 282